Location: Austin
(30.3000°N, 97.7500°W)
Time: 02:02:46
(UTC-05:00)

Cosmos 1844 Rocket - Pass Details

Date: 15 May 2024
Orbit: 825 x 842 km, 71.0° (Epoch: 29 May)

Event Time Altitude Azimuth Distance (km) Brightness Sun altitude
Rises 20:54:22 0° 330° (NNW) 3,364 6.9 -7.8°
Reaches altitude 10° 20:56:55 10° 324° (NW) 2,427 6.3 -8.3°
Maximum altitude 21:02:04 40° 256° (WSW) 1,197 4.0 -9.3°
Drops below altitude 10° 21:07:12 10° 188° (S) 2,417 4.9 -10.3°
Sets 21:09:45 0° 180° (S) 3,348 5.5 -10.7°
